Cambridge 100
12 May 2019

     

Page 1 of 4 (188 items)
Race NoNameChip TimeGenderPace
3115Melanie Staley04:35:04Female21.2 m/hr
3160Rachael Davies06:06:25Female15.9 m/hr
3198Jane Newman06:16:35Female15.5 m/hr
3112Katherine Trezise07:01:21Female13.8 m/hr
3136Harriet Rhodes07:09:04Female13.6 m/hr
3007Kirstie Bransfield-Garth07:10:00Female13.5 m/hr
3024Sue Graham07:10:55Female13.5 m/hr
3022Janie Morris07:11:20Female13.5 m/hr
3180Elizabeth Tattersall07:12:09Female13.5 m/hr
3190Patsy Merrett07:31:49Female12.9 m/hr
3094Kerstin Langer07:40:05Female12.6 m/hr
3113Mark Betambeau07:40:43Female12.6 m/hr
3036Claire Geary07:49:50Female12.4 m/hr
3124Raffie Cowie-Stewart08:07:40Female11.9 m/hr
3129Michael Browne08:08:15Female11.9 m/hr
3010Jayne Dingemans08:22:22Female11.6 m/hr
3012Susan Gipson08:22:25Female11.6 m/hr
3172Helen Dodd08:38:47Female11.2 m/hr
3141Bev Hayes08:45:34Female11.1 m/hr
3077Rachel Newell08:48:41Female11.0 m/hr
3037Zoe Garnham-Archer09:01:53Female10.7 m/hr
3097Jessie Priestnall09:18:46Female10.4 m/hr
3142Brady Ramsay09:39:50Female10.0 m/hr
3020Joanne Humphrey09:45:31Female9.9 m/hr
3032Kathryn Stott09:45:32Female9.9 m/hr
3176Karen Hancock09:58:26Female9.7 m/hr
3139Paula Fye10:03:44Female9.6 m/hr
3138Laura BirdNot startedFemale
3147Rachel NewmanNot startedFemale
3088Sinead DaltonNot startedFemale
3041Joanne BradfordNot startedFemale
3042Hannah BondNot startedFemale
3027Denise LangstonNot startedFemale
3039Maria ReardonNot startedFemale
3047Saffron SmallNot startedFemale
3166Jenny FishNot startedFemale
3118Johnathan Sutton04:13:05Male23.0 m/hr
3103Adam Cleevely05:15:11Male18.5 m/hr
3102Adam Knight05:18:03Male18.3 m/hr
3133Muhammed Maliki05:46:32Male16.8 m/hr
3008Nathan Clough06:01:47Male16.1 m/hr
3111Andrew Hornsblow06:12:56Male15.6 m/hr
3155Graham Moore06:16:47Male15.4 m/hr
3073Steve Dann06:20:41Male15.3 m/hr
3079Chris Cope06:20:44Male15.3 m/hr
3119Andrew Pakes06:23:59Male15.2 m/hr
3099Andrew Morgan06:31:01Male14.9 m/hr
3106Wayne Steel06:33:05Male14.8 m/hr
3069Graeme Howard06:34:51Male14.7 m/hr
3104Philip Brown06:36:57Male14.7 m/hr
Page 1 of 4 (188 items)